CAPE
415 839 902 632 46 10 7 7 33 21 11 3 13 28 1 18 1 0 0 0 0 0 175 640 1188 1035 1349 1718 2053 2002 2169 1940 2103 2464 2246 2162 2324 2025 1986 1829 1893 1694 1453 1744 1828 1820 1624 1610 1549
614 691 1014 1289 26 12 7 27 13 7 15 15 27 29 20 0 0 0 0 0 0 0 347 823 1306 1377 1502 1723 1954 2206 2139 2302 2387 2246 2088 2111 2357 1996 1860 1528 1458 1839 2077 1229 1589 1748 1592 1528 1395
632 1076 1036 433 11 21 28 49 41 26 0 0 24 33 35 0 0 0 0 0 0 18 424 937 1112 1277 1702 1891 2316 2474 2276 2426 2384 2179 1986 1991 1971 2080 1418 960 871 808 1017 1463 1246 1488 1454 1375 1259
1165 1332 910 280 10 37 58 44 30 16 0 0 0 25 0 0 0 0 0 7 62 254 543 1154 1308 1310 1704 2217 2293 2259 2298 2335 2267 2011 1871 1775 1745 1586 1273 1176 870 721 511 475 622 958 937 945 663
1060 745 209 4 22 108 75 41 22 26 0 0 0 22 0 0 0 0 52 55 152 371 619 1020 1844 1450 1661 2275 2237 2443 2489 2509 2192 1971 1834 1914 1906 2004 2477 1987 1614 1016 667 421 376 525 764 625 279
126 183 1 12 112 60 37 24 34 27 0 0 0 12 3 0 0 0 19 63 186 333 740 981 1778 1704 1731 2315 2253 2358 2563 2557 2140 2009 2051 2167 2162 2267 2327 2208 1929 1458 1177 830 663 702 622 401 207
0 0 107 68 43 5 16 1 16 7 0 0 0 0 32 0 7 10 25 84 258 482 817 1093 1290 1447 1813 2241 2426 2450 2625 2369 2111 1978 2033 2148 2202 2257 2235 2221 2032 1886 1636 1424 1363 1284 1194 1018 728
55 62 64 75 26 15 13 15 0 0 0 0 0 0 46 47 38 24 38 170 409 565 691 1087 1234 1230 1706 1958 2401 2558 2555 2289 2190 1754 1673 1855 1950 2146 2202 2113 2438 1988 1941 1629 1316 1140 1137 1481 1330
220 0 0 5 31 41 0 15 0 0 0 0 0 0 8 70 56 30 56 219 370 523 730 1014 1022 1019 1616 1984 2244 2484 1956 1912 2100 1787 1604 1364 920 1066 1076 2073 2369 2278 2205 2057 2036 2180 2382 2312 1788
17 0 0 23 41 56 0 0 0 0 0 0 0 5 8 37 35 2 28 64 255 361 572 693 707 944 1345 1830 1987 1860 1809 1921 1841 1455 1321 807 776 1393 2159 2232 1824 1914 2294 2771 3447 2951 2843 2763 1939
27 81 398 198 28 64 8 0 0 0 0 0 1 46 10 22 2 0 1 44 198 338 353 389 541 693 851 1170 1344 1381 1598 1494 1460 1383 1363 1248 1173 1214 1123 1045 1119 1199 1230 1234 1316 1642 2213 2180 1909
449 562 726 154 89 58 10 39 0 0 0 0 0 25 8 19 43 0 4 4 9 119 174 262 381 375 429 389 847 1043 1233 1131 939 998 1091 1114 977 926 506 1025 1094 1134 1050 1034 1159 1205 1343 1745 1669
562 305 381 6 61 60 66 32 0 0 0 0 31 32 2 53 0 0 0 0 0 25 68 113 126 84 157 73 194 630 882 1022 1073 1168 1243 1338 1015 889 889 1013 1021 1001 852 851 998 1006 1136 1244 1312
659 100 506 149 61 42 38 96 0 0 0 0 47 35 29 39 24 9 0 1 0 0 12 23 30 23 34 132 340 529 684 890 1069 1278 1338 899 796 1079 862 928 846 800 693 804 954 992 1275 1274 1251
763 481 411 536 158 50 59 26 0 0 0 16 0 0 1 23 26 32 0 0 0 0 0 2 6 53 41 1 77 206 465 759 952 1168 1208 926 1010 1008 749 725 877 978 1032 797 896 1080 1093 1061 1089
291 235 399 602 242 105 25 17 0 0 0 0 0 0 0 1 18 48 17 1 3 0 0 0 23 70 36 280 416 562 706 811 910 1019 1050 945 926 773 578 734 950 1066 1183 752 862 1223 1150 982 1197
97 54 170 665 447 226 84 65 0 0 0 0 0 0 0 0 6 16 14 49 31 24 1 0 3 80 56 4 159 568 712 801 903 1008 942 836 775 754 546 511 653 1079 1207 899 1121 1236 1005 1223 1444
188 129 130 435 706 472 226 210 4 0 0 0 0 0 0 0 0 8 6 44 68 43 62 27 43 157 133 125 231 444 578 750 877 1024 978 744 494 658 668 493 470 893 1087 1080 663 1010 1128 1235 1345
47 115 96 210 392 668 403 364 162 6 6 0 0 0 0 1 0 0 0 13 62 64 95 58 127 208 232 214 244 370 511 703 812 946 1037 1041 515 332 405 616 503 622 917 1126 707 753 1023 1130 1328
0 0 0 48 370 710 583 337 273 229 131 31 82 10 0 0 0 0 0 0 8 54 121 160 179 227 313 324 415 526 503 556 590 680 799 894 744 520 380 508 577 440 829 983 961 791 749 724 951
0 0 6 7 526 688 522 382 260 196 356 136 156 154 5 0 0 0 0 0 0 22 71 152 242 247 313 440 428 413 364 373 379 456 419 580 663 516 472 335 386 421 484 858 945 833 848 802 852
9 11 17 15 538 36 36 0 20 335 203 278 186 181 107 0 5 35 23 38 30 28 49 110 196 223 278 468 362 258 269 173 213 333 360 237 229 274 352 390 361 376 383 468 834 865 699 883 1012
0 5 9 0 0 0 0 0 0 2 245 159 285 280 263 85 41 51 61 89 92 60 77 95 127 188 260 385 351 187 152 107 80 151 298 322 253 212 303 362 337 369 312 297 313 461 571 652 825
0 0 0 0 0 0 0 0 0 47 270 310 194 425 283 217 63 22 23 66 81 107 124 135 162 238 314 255 203 175 214 154 135 104 175 246 234 253 291 383 429 490 414 326 385 407 442 659 945
0 0 0 0 0 0 0 0 0 296 570 391 433 446 433 226 107 181 425 157 90 144 220 249 276 302 319 284 302 334 323 268 262 215 143 147 116 157 308 318 372 460 475 473 366 383 370 324 532
0 0 0 0 0 0 0 0 6 374 867 561 401 414 571 326 190 210 550 389 453 449 411 467 458 559 684 662 506 438 404 375 322 321 296 326 323 277 265 351 377 365 388 452 515 379 470 435 275
0 0 0 0 0 0 0 0 2 647 543 711 662 684 576 339 320 128 560 549 488 485 558 715 700 608 582 698 766 821 838 860 764 712 764 789 691 582 474 364 409 461 465 508 430 457 481 479 460
0 0 0 0 0 0 0 1 35 491 595 550 566 544 354 288 291 281 552 626 280 265 259 283 326 198 91 157 391 644 838 881 886 850 635 885 875 897 822 616 545 457 481 619 681 481 659 575 561
0 0 0 0 0 0 0 0 88 369 388 412 515 389 372 371 352 461 564 375 243 154 213 273 295 17 0 0 0 0 0 0 21 183 246 938 1307 1162 852 722 779 691 626 715 807 918 812 685 815
0 0 0 0 0 0 0 0 59 227 137 161 243 285 330 458 603 493 460 292 116 40 22 27 0 0 0 0 0 0 0 0 0 0 15 262 644 1204 1608 1782 982 831 803 729 675 698 651 539 633
CIN
-269 -168 -154 -193 -86 -56 -42 -31 -20 -16 -45 -43 -56 -52 -38 -144 -25 -0 -0 -0 -0 -0 -26 -5 -1 -0 -0 -2 -0 -0 -0 -0 -0 -0 -0 -0 -0 -0 -0 -0 -0 -0 -0 -0 -0 -0 -0 -0 -0
-161 -161 -131 -106 -49 -51 -34 -68 -84 -20 -68 -32 -99 -86 -98 -0 -0 -0 -0 -0 -0 -0 -28 -1 -0 -0 -0 -0 -0 -0 -0 -0 -0 -0 -0 -0 -0 -0 -0 -0 -0 -0 -0 -0 -0 -0 -0 -0 -1
-164 -102 -83 -62 -49 -65 -80 -81 -92 -114 -0 -0 -113 -91 -107 -0 -0 -0 -0 -0 -0 -87 -13 -3 -1 -0 -0 -0 -0 -0 -0 -0 -0 -0 -0 -0 -0 -0 -0 -4 -6 -10 -9 -0 -2 -1 -5 -6 -6
-78 -72 -100 -40 -48 -52 -110 -73 -109 -118 -0 -0 -0 -83 -1 -0 -0 -0 -0 -182 -132 -42 -9 -2 -0 -0 -0 -1 -0 -0 -0 -0 -0 -0 -0 -0 -0 -0 -0 -0 -15 -34 -71 -79 -57 -24 -25 -24 -42
-71 -101 -55 -36 -51 -64 -86 -73 -95 -98 -0 -0 -2 -65 -0 -1 -0 -0 -116 -97 -68 -20 -3 -1 -0 -0 -0 -0 -0 -1 -1 -0 -0 -0 -0 -0 -0 -0 -1 -0 -0 -21 -66 -120 -120 -86 -56 -80 -136
-105 -138 -17 -30 -62 -92 -84 -85 -85 -115 -0 -0 -5 -139 -17 -0 -0 -0 -109 -85 -48 -38 -5 -4 -0 -0 -0 -0 -0 -0 -0 -0 -0 -0 -0 -0 -0 -0 -0 -0 -0 -5 -28 -70 -95 -95 -124 -153 -201
-0 -0 -86 -59 -106 -59 -10 -5 -67 -113 -0 -0 -0 -0 -140 -0 -82 -114 -122 -67 -25 -12 -2 -1 -1 -0 -0 -0 -0 -1 -1 -0 -0 -3 -0 -0 -0 -0 -0 -0 -0 -3 -23 -36 -41 -58 -72 -94 -134
-113 -163 -80 -47 -74 -62 -24 -75 -0 -0 -0 -0 -0 -5 -186 -163 -131 -124 -93 -29 -3 -3 -3 -2 -2 -2 -0 -0 -0 -2 -0 -0 -1 -25 -24 -22 -12 -2 -2 -18 -11 -22 -20 -37 -69 -99 -94 -68 -85
-289 -0 -0 -21 -56 -49 -0 -68 -0 -0 -0 -0 -0 -0 -134 -186 -172 -167 -114 -38 -3 -0 -1 -4 -9 -10 -1 -1 -1 -0 -0 -5 -6 -26 -41 -76 -51 -65 -119 -51 -23 -26 -28 -31 -37 -38 -38 -44 -74
-239 -0 -0 -31 -78 -111 -0 -0 -0 -0 -0 -0 -6 -92 -101 -160 -169 -44 -195 -131 -35 -5 -2 -25 -25 -13 -4 -0 -0 -2 -6 -7 -25 -64 -84 -126 -84 -110 -64 -73 -74 -61 -46 -33 -21 -32 -45 -53 -114
-241 -43 -127 -33 -76 -118 -56 -0 -0 -0 -0 -0 -14 -174 -114 -167 -23 -0 -22 -138 -65 -19 -14 -24 -33 -29 -36 -20 -19 -30 -26 -37 -47 -65 -80 -81 -99 -128 -192 -31 -6 -11 -25 -37 -78 -162 -121 -130 -150
-60 -120 -84 -33 -95 -29 -69 -93 -0 -0 -0 -0 -1 -189 -96 -150 -165 -0 -180 -363 -295 -96 -65 -51 -47 -66 -75 -83 -63 -57 -67 -85 -98 -96 -102 -101 -98 -150 -281 -7 -13 -24 -59 -34 -173 -231 -226 -204 -205
-138 -45 -91 -5 -102 -61 -137 -54 -0 -0 -0 -0 -157 -136 -24 -137 -0 -0 -0 -27 -0 -247 -144 -120 -128 -148 -136 -202 -143 -89 -79 -86 -68 -77 -75 -73 -107 -44 -50 -30 -13 -31 -43 -42 -51 -66 -100 -221 -222
-105 -36 -105 -132 -16 -90 -21 -2 -0 -0 -0 -0 -116 -136 -133 -153 -179 -221 -0 -129 -0 -54 -279 -160 -214 -252 -253 -75 -59 -48 -45 -46 -75 -70 -67 -88 -55 -59 -67 -6 -16 -100 -43 -51 -53 -61 -77 -97 -120
-80 -46 -39 -57 -17 -4 -9 -15 -0 -0 -0 -130 -0 -3 -9 -123 -140 -187 -0 -0 -0 -0 -0 -362 -315 -243 -254 -37 -215 -83 -71 -70 -80 -61 -71 -76 -57 -68 -84 -236 -166 -107 -95 -50 -60 -115 -87 -77 -124
-32 -17 -18 -39 -21 -19 -9 -17 -0 -0 -0 -0 -0 -0 -0 -13 -88 -117 -172 -33 -71 -0 -0 -0 -291 -259 -261 -43 -41 -39 -32 -44 -75 -84 -80 -53 -49 -47 -81 -227 -211 -236 -80 -59 -69 -260 -139 -84 -97
-34 -79 -51 -28 -87 -51 -84 -34 -0 -0 -0 -0 -0 -0 -0 -0 -38 -55 -81 -144 -164 -28 -2 -0 -65 -212 -240 -109 -50 -20 -20 -31 -51 -64 -75 -61 -43 -40 -90 -77 -239 -218 -76 -81 -248 -226 -185 -231 -222
-37 -58 -56 -41 -62 -84 -89 -41 -25 -0 -0 -0 -0 -0 -0 -0 -0 -51 -57 -145 -108 -77 -43 -3 -210 -159 -171 -147 -28 -23 -29 -52 -51 -48 -60 -75 -69 -48 -49 -106 -205 -211 -88 -70 -122 -220 -102 -223 -233
-177 -117 -65 -57 -85 -41 -55 -51 -15 -56 -127 -0 -0 -0 -0 -15 -0 -0 -0 -4 -118 -130 -171 -27 -173 -152 -126 -123 -111 -31 -61 -29 -44 -51 -42 -37 -66 -95 -243 -89 -102 -227 -189 -69 -132 -276 -236 -213 -232
-1 -0 -0 -129 -89 -49 -45 -64 -47 -33 -32 -83 -36 -10 -0 -0 -0 -0 -0 -0 -117 -128 -146 -141 -186 -122 -100 -92 -64 -33 -42 -26 -25 -24 -32 -27 -32 -51 -124 -89 -80 -122 -179 -139 -71 -111 -234 -252 -245
-0 -0 -8 -11 -106 -47 -52 -76 -125 -94 -49 -28 -19 -26 -37 -0 -0 -0 -14 -0 -0 -191 -154 -140 -125 -138 -106 -51 -46 -30 -32 -37 -40 -40 -41 -42 -42 -49 -75 -106 -188 -108 -247 -38 -45 -71 -90 -137 -214
-1 -0 -0 -94 -65 -19 -61 -0 -51 -97 -92 -46 -36 -28 -36 -0 -89 -68 -29 -12 -26 -203 -173 -128 -93 -103 -99 -44 -38 -40 -37 -51 -48 -37 -20 -18 -35 -159 -209 -83 -76 -260 -254 -221 -31 -27 -54 -63 -126
-0 -0 -0 -1 -0 -0 -0 -0 -0 -77 -121 -138 -58 -35 -28 -53 -47 -18 -10 -11 -4 -72 -146 -112 -91 -78 -103 -60 -47 -63 -51 -81 -46 -96 -48 -45 -32 -159 -191 -201 -76 -63 -66 -108 -252 -195 -182 -77 -87
-0 -0 -0 -0 -0 -0 -0 -0 -0 -212 -124 -129 -94 -26 -44 -59 -53 -47 -168 -371 -86 -149 -114 -104 -75 -51 -38 -42 -17 -41 -0 -35 -11 -29 -72 -52 -68 -187 -107 -73 -59 -37 -38 -69 -67 -207 -181 -141 -113
-0 -0 -0 -0 -0 -0 -0 -0 -0 -100 -116 -220 -159 -89 -25 -26 -50 -240 -213 -277 -200 -178 -95 -154 -260 -21 -37 -27 -0 -0 -1 -4 -6 -15 -55 -62 -90 -232 -207 -203 -68 -120 -46 -32 -56 -52 -174 -135 -128
-0 -0 -0 -0 -0 -0 -0 -0 -21 -65 -62 -143 -112 -105 -6 -2 -221 -175 -128 -244 -214 -224 -221 -169 -173 -140 -134 -88 -74 -69 -90 -76 -90 -100 -98 -102 -87 -90 -216 -201 -196 -190 -187 -165 -21 -54 -51 -44 -72
-0 -0 -0 -0 -0 -0 -0 -0 -2 -4 -17 -43 -54 -23 -2 -24 -215 -73 -72 -134 -123 -127 -107 -122 -81 -77 -64 -60 -46 -49 -46 -46 -52 -51 -58 -64 -98 -103 -77 -98 -165 -174 -161 -33 -168 -24 -152 -155 -144
-0 -0 -0 -0 -0 -0 -0 -1 -50 -1 -3 -24 -20 -11 -38 -81 -53 -46 -46 -13 -70 -75 -59 -42 -15 -33 -260 -233 -94 -44 -28 -21 -25 -41 -81 -77 -92 -89 -80 -84 -78 -103 -120 -37 -21 -39 -18 -43 -134
-0 -0 -0 -0 -0 -0 -0 -0 -78 -2 -10 -7 -18 -25 -26 -13 -21 -34 -19 -41 -70 -65 -73 -88 -27 -6 -0 -0 -0 -0 -0 -0 -224 -236 -218 -65 -43 -67 -92 -118 -116 -80 -95 -54 -33 -19 -20 -28 -16
-0 -0 -0 -0 -0 -0 -0 -0 -48 -16 -40 -41 -40 -46 -46 -42 -24 -24 -21 -33 -82 -48 -66 -76 -0 -0 -0 -0 -0 -0 -0 -0 -0 -0 -335 -212 -109 -44 -11 -14 -77 -109 -112 -79 -69 -40 -116 -34 -16
Wind_Speed
16 17 19 16 nan nan nan nan nan nan nan nan nan nan nan nan nan nan nan nan nan nan 15 19 11 9 9 7 4 1 2 2 1 4 6 5 4 4 4 4 4 5 4 3 4 5 5 5 6
15 13 14 19 nan nan nan nan nan nan nan nan nan nan nan nan nan nan nan nan nan nan 14 17 8 8 8 5 7 4 0 1 5 7 5 3 2 4 5 4 4 5 3 2 2 3 5 7 10
18 16 13 18 nan nan nan nan nan nan nan nan nan nan nan nan nan nan nan nan nan nan 12 13 8 6 6 5 4 3 4 6 6 6 4 2 4 4 4 4 3 3 4 4 4 6 8 11 14
18 21 14 15 nan nan nan nan nan nan nan nan nan nan nan nan nan nan nan nan nan 7 8 7 6 4 3 6 6 4 5 7 7 4 2 3 4 3 3 4 5 7 9 10 11 11 14 14 16
16 20 19 nan nan 19 nan nan nan nan nan nan nan nan nan nan nan nan nan nan 6 6 6 4 4 2 3 4 5 2 6 7 6 3 1 4 3 3 6 4 7 8 11 14 15 16 16 15 17
16 19 nan nan 17 nan nan nan nan nan nan nan nan nan nan nan nan nan nan nan 5 3 4 6 3 1 1 5 4 3 6 6 5 3 3 3 1 4 8 9 9 9 11 12 14 15 15 16 15
nan nan 22 nan nan nan nan nan nan nan nan nan nan nan nan nan nan nan nan nan 7 5 4 6 6 2 2 4 2 4 7 5 5 4 2 3 3 5 8 11 11 10 11 12 12 14 15 15 13
nan nan nan nan nan nan nan nan nan nan nan nan nan nan nan nan nan nan nan 5 6 6 5 3 6 6 8 9 5 9 9 8 7 3 5 5 8 10 13 12 14 13 12 13 13 15 15 14 13
17 nan nan nan nan nan nan nan nan nan nan nan nan nan nan nan nan nan nan 6 4 4 5 2 6 8 7 10 13 11 7 8 6 7 7 9 11 15 16 17 17 16 17 16 14 16 17 16 15
nan nan nan nan nan nan nan nan nan nan nan nan nan nan nan nan nan nan nan nan 7 11 11 4 7 13 11 16 13 13 12 9 8 8 8 10 15 18 16 18 19 19 20 19 17 18 20 18 15
nan nan 23 16 nan nan nan nan nan nan nan nan nan nan nan nan nan nan nan nan 15 12 12 8 9 13 13 19 13 12 11 9 8 9 10 15 16 14 14 13 13 13 17 13 13 16 15 17 15
26 27 22 21 nan nan nan nan nan nan nan nan nan nan nan nan nan nan nan nan nan 13 14 17 15 15 20 19 15 14 10 8 8 9 12 14 16 15 13 12 13 12 11 11 8 12 14 16 16
17 28 22 nan nan nan nan nan nan nan nan nan nan nan nan nan nan nan nan nan nan nan nan 14 20 nan 19 nan 14 12 10 8 10 10 12 9 10 14 12 12 12 12 12 10 9 11 14 14 15
19 22 26 14 nan nan nan nan nan nan nan nan nan nan nan nan nan nan nan nan nan nan nan nan nan nan nan 11 11 9 6 10 11 10 11 8 5 10 12 11 10 10 11 10 12 13 14 15 14
10 14 17 15 14 nan nan nan nan nan nan nan nan nan nan nan nan nan nan nan nan nan nan nan nan nan nan nan nan 8 7 8 10 10 9 8 5 7 7 9 8 8 9 11 11 13 11 11 11
6 11 11 18 12 18 nan nan nan nan nan nan nan nan nan nan nan nan nan nan nan nan nan nan nan nan nan 7 5 3 2 5 8 9 9 8 7 6 4 6 7 6 7 9 10 9 9 9 10
nan nan 10 9 11 9 nan nan nan nan nan nan nan nan nan nan nan nan nan nan nan nan nan nan nan nan nan nan 7 6 4 2 2 4 6 8 7 7 4 4 6 7 6 7 9 6 5 6 9
4 6 7 8 9 7 9 14 nan nan nan nan nan nan nan nan nan nan nan nan nan nan nan nan nan 5 3 6 8 8 6 5 3 1 3 4 4 8 6 4 5 5 7 6 7 4 3 5 7
nan 5 nan 7 3 5 6 7 8 nan nan nan nan nan nan nan nan nan nan nan nan nan nan nan 2 5 5 6 5 5 3 3 5 5 2 2 0 3 6 4 5 5 6 7 8 8 7 5 8
nan nan nan nan 3 8 3 5 3 5 8 nan nan nan nan nan nan nan nan nan nan nan 3 5 3 5 6 7 8 6 5 4 5 6 7 5 4 3 4 4 4 6 7 8 9 11 11 8 9
nan nan nan nan 9 14 10 9 4 1 3 4 7 8 nan nan nan nan nan nan nan nan nan 3 3 3 4 7 12 12 14 13 12 8 8 9 7 6 5 4 5 5 7 7 8 9 10 12 13
nan nan nan nan 15 nan nan nan nan 6 2 4 1 3 2 nan nan nan nan nan nan nan nan 4 7 7 7 11 12 11 14 13 10 9 8 9 11 11 8 7 8 8 9 7 8 9 10 11 12
nan nan nan nan nan nan nan nan nan nan 4 3 5 7 11 nan nan nan nan nan nan nan nan nan 9 8 9 10 10 14 14 16 nan 14 12 11 13 17 15 12 11 12 14 13 9 10 11 12 13
nan nan nan nan nan nan nan nan nan nan 17 13 13 11 15 13 nan nan nan nan nan 10 8 5 8 10 13 14 12 11 9 12 15 16 15 15 16 17 20 18 17 14 15 15 15 14 15 14 14
nan nan nan nan nan nan nan nan nan 18 19 7 14 16 16 17 19 16 10 18 nan 17 3 5 13 12 14 13 10 11 9 11 11 13 17 18 16 19 20 23 20 18 15 14 15 15 14 17 19
nan nan nan nan nan nan nan nan nan 22 28 26 27 24 25 27 27 21 8 12 19 19 13 13 13 13 14 13 11 13 12 13 14 15 16 16 16 16 20 23 23 19 17 15 14 13 13 15 14
nan nan nan nan nan nan nan nan nan 34 35 32 31 29 23 24 34 23 32 24 27 23 20 20 21 22 21 21 19 17 22 20 20 20 18 19 18 18 18 19 22 22 20 19 17 17 14 14 13
nan nan nan nan nan nan nan nan nan 35 35 34 33 29 29 31 33 19 20 23 23 23 24 24 26 23 nan 18 22 21 24 23 23 23 21 19 17 21 21 19 18 23 25 24 23 21 21 21 20
nan nan nan nan nan nan nan nan nan 37 35 39 38 34 35 34 27 24 28 21 28 30 32 24 26 nan nan nan nan nan nan nan nan 25 27 32 28 27 24 25 22 20 24 27 28 26 26 27 25
nan nan nan nan nan nan nan nan nan 35 35 40 41 43 44 44 39 39 37 36 26 nan nan nan nan nan nan nan nan nan nan nan nan nan nan 32 34 33 32 28 25 22 23 24 27 29 32 32 31
Wind_Direction
83 81 96 106 nan nan nan nan nan nan nan nan nan nan nan nan nan nan nan nan nan nan 117 110 123 124 128 142 160 152 270 313 107 134 152 157 169 211 249 238 241 232 216 209 187 183 178 163 134
73 80 94 101 nan nan nan nan nan nan nan nan nan nan nan nan nan nan nan nan nan nan 120 117 124 130 141 157 163 138 306 139 138 151 161 180 236 293 295 258 202 192 183 239 164 154 146 127 117
73 91 115 113 nan nan nan nan nan nan nan nan nan nan nan nan nan nan nan nan nan nan 127 117 119 121 137 154 148 155 161 155 157 156 167 237 263 233 242 205 201 133 123 120 112 116 124 119 109
92 93 112 133 nan nan nan nan nan nan nan nan nan nan nan nan nan nan nan nan nan 159 130 97 78 92 130 146 188 173 141 153 142 159 187 275 293 252 218 174 156 132 115 111 109 110 111 109 107
100 104 109 nan nan 118 nan nan nan nan nan nan nan nan nan nan nan nan nan nan 180 172 119 98 65 109 93 102 179 165 128 133 143 140 324 311 279 189 180 149 150 131 117 110 109 107 108 110 112
111 104 nan nan 101 nan nan nan nan nan nan nan nan nan nan nan nan nan nan nan 184 235 142 128 68 28 160 105 170 166 123 126 126 113 16 342 266 173 165 163 145 132 118 115 111 111 112 106 106
nan nan 106 nan nan nan nan nan nan nan nan nan nan nan nan nan nan nan nan nan 190 191 184 146 140 120 109 97 189 123 106 117 110 71 55 87 117 136 145 144 136 126 119 115 113 115 107 102 104
nan nan nan nan nan nan nan nan nan nan nan nan nan nan nan nan nan nan nan 195 210 204 199 173 148 160 156 138 127 140 148 125 100 99 94 105 143 143 135 134 126 119 112 101 104 108 102 99 99
93 nan nan nan nan nan nan nan nan nan nan nan nan nan nan nan nan nan nan 177 186 200 156 140 144 177 147 159 138 152 114 110 126 112 113 142 130 131 133 132 125 117 109 103 110 112 107 103 108
nan nan nan nan nan nan nan nan nan nan nan nan nan nan nan nan nan nan nan nan 93 88 76 112 181 150 159 156 146 147 141 140 117 115 133 134 137 124 131 128 130 126 120 114 111 108 104 104 101
nan nan 130 121 nan nan nan nan nan nan nan nan nan nan nan nan nan nan nan nan 100 77 47 30 161 159 141 156 142 145 137 118 108 121 132 131 127 115 112 104 100 103 114 104 114 108 101 101 101
116 111 98 108 nan nan nan nan nan nan nan nan nan nan nan nan nan nan nan nan nan 73 60 82 104 129 137 144 144 137 127 112 112 119 133 129 127 124 123 108 102 92 86 92 99 103 99 95 89
116 111 116 nan nan nan nan nan nan nan nan nan nan nan nan nan nan nan nan nan nan nan nan 83 82 nan 108 nan 136 134 120 125 114 117 117 114 126 131 133 123 110 97 89 95 90 101 101 90 80
73 86 121 136 nan nan nan nan nan nan nan nan nan nan nan nan nan nan nan nan nan nan nan nan nan nan nan 121 134 133 121 110 114 110 104 111 118 126 138 133 121 112 102 110 113 111 102 89 77
71 100 103 110 114 nan nan nan nan nan nan nan nan nan nan nan nan nan nan nan nan nan nan nan nan nan nan nan nan 152 135 105 104 106 96 113 117 104 134 144 138 124 109 117 127 114 125 116 95
141 131 107 104 97 79 nan nan nan nan nan nan nan nan nan nan nan nan nan nan nan nan nan nan nan nan nan 114 144 171 112 103 110 117 113 104 109 99 143 149 148 140 125 126 135 148 142 133 124
nan nan 109 115 81 86 nan nan nan nan nan nan nan nan nan nan nan nan nan nan nan nan nan nan nan nan nan nan 150 165 162 129 123 107 115 105 101 101 133 162 155 165 154 150 150 162 148 121 123
186 144 135 113 98 110 105 108 nan nan nan nan nan nan nan nan nan nan nan nan nan nan nan nan nan 142 142 155 167 183 193 181 238 250 98 94 98 113 127 154 170 180 162 167 169 174 135 99 109
nan 206 nan 133 121 202 108 143 77 nan nan nan nan nan nan nan nan nan nan nan nan nan nan nan 168 171 190 190 210 207 195 225 219 252 304 98 256 102 115 166 172 186 177 180 176 178 192 190 173
nan nan nan nan 212 206 204 141 44 67 76 nan nan nan nan nan nan nan nan nan nan nan 165 167 129 211 179 190 206 212 217 198 214 214 229 244 258 229 165 173 203 183 186 181 191 186 183 189 211
nan nan nan nan 192 168 206 176 256 118 177 131 102 125 nan nan nan nan nan nan nan nan nan 230 200 199 223 221 219 221 221 216 222 224 228 242 264 278 274 223 214 222 231 203 192 198 202 185 190
nan nan nan nan 213 nan nan nan nan 200 312 0 72 266 158 nan nan nan nan nan nan nan nan 227 233 235 222 244 235 234 242 249 230 233 231 214 228 236 253 260 260 248 244 228 212 209 211 217 204
nan nan nan nan nan nan nan nan nan nan 242 21 317 289 271 nan nan nan nan nan nan nan nan nan 223 221 236 234 234 234 236 242 nan 241 236 229 227 231 235 235 238 254 255 254 240 218 224 231 229
nan nan nan nan nan nan nan nan nan nan 200 190 234 255 278 277 nan nan nan nan nan 218 223 234 253 240 247 248 248 257 259 253 252 260 256 251 237 241 238 240 245 240 246 255 256 253 255 251 255
nan nan nan nan nan nan nan nan nan 206 198 211 263 262 249 250 232 257 256 245 nan 180 259 241 249 240 254 265 276 280 269 249 254 266 277 280 265 239 234 243 246 250 252 249 257 263 260 264 262
nan nan nan nan nan nan nan nan nan 231 243 241 250 258 250 237 228 197 181 273 267 270 238 265 275 261 252 245 260 269 264 247 246 251 255 257 272 267 256 244 244 246 252 250 250 248 252 260 261
nan nan nan nan nan nan nan nan nan 234 240 245 254 258 249 246 247 257 278 266 253 253 248 264 265 253 242 235 236 246 248 243 243 245 250 259 265 266 264 261 245 246 246 250 250 245 237 242 250
nan nan nan nan nan nan nan nan nan 238 243 247 247 244 230 238 256 270 242 236 247 241 241 246 251 255 nan 242 243 241 236 241 249 251 247 256 255 262 263 264 258 243 246 251 252 245 248 251 242
nan nan nan nan nan nan nan nan nan 250 250 256 250 244 240 240 243 233 239 263 258 239 239 235 246 nan nan nan nan nan nan nan nan 263 251 250 248 253 253 258 257 254 250 254 256 257 252 257 257
nan nan nan nan nan nan nan nan nan 251 252 260 257 252 246 246 244 248 249 255 240 nan nan nan nan nan nan nan nan nan nan nan nan nan nan 270 273 256 245 249 253 255 257 255 260 263 263 264 262